#timestamp,LO_Frequency,Hit,StdDev 
1557853215.2,286046998.1,N
1557853235.1,286047001.1,N
1557853236.0,286047001.1,N
1557853255.8,286046998.6,N
1557853275.7,286046999.0,N
1557853295.5,286047002.8,N
1557853315.3,286047001.2,N
1557853335.2,286046998.2,N
1557853355.0,286047001.2,N
1557853355.9,286047001.2,N
1557853375.7,286047000.2,N
1557853395.6,286047002.7,N
1557853415.4,286047001.5,N
1557853435.3,286047001.8,N
1557853455.1,286047002.4,N
1557853456.0,286047002.4,N
1557853475.8,286047000.2,N
1557853495.7,286046998.5,N
1557853515.5,286046999.1,N
1557853535.3,286046998.9,N
1557853555.2,286046999.3,N
1557853575.0,286046999.2,N
1557853575.9,286046999.2,N
1557853595.8,286047000.7,N
1557853615.6,286047000.7,N
1557853635.4,286047001.2,N
1557853655.3,286047000.5,N
1557853675.1,286047002.7,N
1557853695.8,286047000.5,N
1557853715.7,286046998.4,N
1557853735.5,286047001.1,N
1557853755.4,286047002.8,N
1557853775.2,286047001.0,N
1557853795.0,286047000.3,N
1557853795.9,286047000.3,N
1557853815.8,286047001.1,N
1557853835.6,286047000.8,N
1557853855.4,286047001.1,N
1557853875.3,286047000.0,N
1557853895.1,286046999.9,N
1557853915.9,286047000.6,N
1557853935.7,286047002.5,N
1557853955.5,286047002.6,N
1557853975.4,286046999.7,N
1557853995.2,286047002.6,N
1557854015.0,286046999.9,N
1557854015.9,286046999.9,N
1557854035.8,286047001.7,N
1557854055.6,286047001.5,N
1557854075.5,286047003.2,N
1557854095.3,286047003.8,Y
1557854115.1,286046999.7,P
1557854135.9,286047002.1,P
1557854155.7,286047002.5,N
1557854175.5,286047001.0,N
1557854195.4,286047001.0,N
1557854215.2,286047000.6,N
1557854235.1,286046998.3,N
1557854236.0,286046998.3,N
1557854255.8,286046999.2,N
1557854275.6,286046996.5,N
1557854295.5,286046997.0,N
1557854315.3,286046996.5,N
1557854335.1,286046998.7,N
1557854355.9,286047000.7,N
1557854375.7,286046998.1,N
1557854395.6,286046998.5,N
1557854415.4,286046999.2,N
1557854435.2,286046999.2,N
1557854455.1,286046997.1,N
1557854456.0,286046997.1,N
1557854475.8,286046997.8,N
1557854495.6,286046997.5,N
1557854515.5,286046997.7,N
1557854535.3,286046996.5,N
1557854555.2,286046997.0,N
1557854575.9,286046997.1,N
1557854595.7,286046997.6,N
1557854615.6,286046997.9,N
1557854635.4,286046997.4,N
1557854655.2,286046997.3,N
1557854675.1,286046995.3,N
1557854676.0,286046995.3,N
1557854695.8,286046995.8,N
1557854715.7,286046996.3,N
1557854735.5,286046993.3,Y
1557854755.3,286046998.7,P
1557854775.2,286046998.6,P
1557854795.0,286046998.1,P
1557854795.9,286046998.1,Y
1557854815.7,286047002.2,P
1557854835.6,286047003.6,N
1557854855.4,286047004.7,N
1557854875.3,286047003.3,N
1557854895.1,286047004.1,N
1557854896.0,286047004.1,N
1557854915.8,286047004.3,N
1557854935.7,286047003.8,N
1557854955.5,286047002.3,N
1557854975.3,286047002.1,N
1557854995.1,286047003.9,N
1557855015.9,286047002.3,N
1557855035.7,286047004.4,N
1557855055.5,286046999.7,N
1557855075.4,286046998.3,N
1557855095.2,286046998.2,N
1557855115.1,286046999.5,N
1557855116.0,286046999.5,N
1557855135.8,286046998.9,N
1557855155.6,286046998.7,N
1557855175.5,286047001.0,N
1557855195.3,286047000.1,N
1557855215.1,286047002.6,N
1557855235.9,286047004.4,N
1557855255.7,286047001.5,N
1557855275.6,286047001.6,N
1557855295.4,286046999.8,N
1557855315.2,286047000.3,N
1557855335.1,286047000.3,N
1557855336.0,286047000.3,N
1557855355.8,286047002.8,N
1557855375.7,286047000.0,N
1557855395.5,286046999.9,N
1557855415.3,286047001.4,N
1557855435.2,286047002.0,N
1557855455.0,286047001.3,N
1557855455.9,286047001.3,N
1557855475.7,286047001.4,N
1557855495.6,286047001.9,N
1557855515.4,286047001.6,N
1557855535.3,286047002.4,N
1557855555.1,286047000.3,N
1557855556.0,286047000.3,N
1557855575.8,286046999.9,N
1557855595.7,286046998.4,N
1557855615.5,286046996.5,N
1557855635.3,286046997.0,N
1557855655.2,286046999.3,N
1557855675.0,286047002.7,N
1557855675.9,286047002.7,N
1557855695.8,286047000.5,N
1557855715.6,286046998.4,N
1557855735.4,286047000.2,N
1557855755.3,286047000.3,N
1557855775.1,286046999.3,N
1557855795.9,286046999.3,N
1557855815.7,286046998.4,N
1557855835.5,286047000.7,N
1557855855.4,286047000.4,N
1557855875.2,286046999.8,N
1557855895.0,286047001.0,N
1557855896.0,286047001.0,N
1557855915.8,286046999.0,N
1557855935.6,286047001.2,N
1557855955.5,286046998.7,N
1557855975.3,286047002.6,N
1557855995.1,286047002.3,N
1557856015.9,286047001.0,N
1557856035.7,286046999.9,N
1557856055.6,286047000.7,N
1557856075.4,286046998.1,N
1557856095.2,286046999.0,N
1557856115.1,286046998.3,N
1557856116.0,286046998.3,N
1557856135.8,286046999.8,N
1557856155.7,286047000.9,N
1557856175.5,286047002.6,N
1557856195.3,286046999.7,N
1557856215.2,286047002.1,N
1557856235.0,286047000.3,N
1557856235.9,286047000.3,N
1557856255.8,286047000.8,N
1557856275.6,286046998.6,N
1557856295.4,286046998.9,N
1557856315.3,286047001.2,N
1557856335.1,286047000.0,N
1557856355.8,286047001.6,N
1557856375.7,286047004.2,Y
1557856395.5,286047004.3,P
1557856415.4,286047003.2,N
1557856435.2,286047003.7,N
1557856455.0,286047001.7,N
1557856455.9,286047001.7,N
1557856475.8,286047001.5,N
1557856495.6,286047000.7,N
1557856515.4,286046998.8,N
1557856535.3,286046998.9,N
1557856555.1,286047001.0,N
1557856575.9,286047001.8,N
1557856595.7,286047004.0,N
1557856615.5,286047003.6,N
1557856635.4,286047001.7,N
1557856655.2,286047003.4,N
1557856675.0,286047001.8,N
1557856676.0,286047001.8,N
1557856695.8,286047002.6,N
1557856715.6,286047000.4,N
1557856735.5,286047001.7,N
1557856755.3,286047003.6,N
1557856775.1,286047001.4,N
1557856795.9,286047001.9,N
